DW9987 Weather Reports


Display with metric or nautical units.
time (UTC)temp
F
wind
direction
speed
MPH
gust
MPH
rain 1hr
in
rain 24hr
in
rain mn
in
humidity
%
barometer
mb
20260904163034 87 292 0.0 2.0 0.00 0.00 0.00 76 1014.5
20260904161535 87 13 0.0 4.0 0.00 0.00 0.00 73 1014.3
20260904160028 86 238 0.0 2.0 0.00 0.00 0.00 76 1014.1
20260904154524 85 5 1.0 3.0 0.00 0.00 0.00 74 1014.0
20260904153022 84 321 0.0 2.0 0.00 0.00 0.00 78 1013.9
20260904151518 83 291 0.0 0.0 0.00 0.00 0.00 79 1013.7
20260904150027 82 292 0.0 0.0 0.00 0.00 0.00 82 1013.5
20260904144513 82 292 0.0 3.0 0.00 0.00 0.00 78 1013.3
20260904143013 81 209 0.0 2.0 0.00 0.00 0.00 79 1013.3
20260904141507 80 218 0.0 2.0 0.00 0.00 0.00 81 1013.4
20260904140005 80 326 0.0 1.0 0.00 0.00 0.00 82 1013.3
20260904134503 79 12 0.0 0.0 0.00 0.00 0.00 83 1013.2
20260904133059 77 262 0.0 1.0 0.00 0.00 0.00 85 1013.1
20260904131559 76 269 0.0 0.0 0.00 0.00 0.00 89 1013.0
20260904130055 76 269 0.0 0.0 0.00 0.00 0.00 88 1012.7
20260904124555 76 269 0.0 0.0 0.00 0.00 0.00 87 1012.4
20260904123055 76 269 0.0 0.0 0.00 0.00 0.00 85 1012.2
20260904121555 77 269 0.0 0.0 0.00 0.00 0.00 83 1012.0
20260904120105 77 269 0.0 0.0 0.00 0.00 0.00 82 1011.9
20260904114555 78 273 0.0 3.0 0.00 0.00 0.00 81 1011.6
20260904113054 78 257 0.0 4.0 0.00 0.00 0.00 80 1011.3
20260904111552 78 252 0.0 5.0 0.00 0.00 0.00 80 1011.2
20260904110050 78 245 1.0 5.0 0.00 0.00 0.00 80 1011.2
20260904104551 78 249 1.0 5.0 0.00 0.00 0.00 80 1011.2
20260904103048 78 205 1.0 5.0 0.00 0.00 0.00 80 1011.5
20260904101548 77 246 0.0 2.0 0.00 0.00 0.00 81 1011.8
20260904100050 77 266 0.0 2.0 0.00 0.00 0.00 82 1011.8
20260904094546 77 238 0.0 2.0 0.00 0.00 0.00 84 1012.0
20260904093043 76 235 0.0 1.0 0.00 0.00 0.00 86 1011.9
20260904091543 76 236 0.0 0.0 0.00 0.00 0.00 86 1012.1
20260904090043 77 236 0.0 0.0 0.00 0.00 0.00 86 1012.1
20260904084541 77 236 0.0 0.0 0.00 0.00 0.00 87 1012.1
20260904083043 77 203 0.0 0.0 0.00 0.00 0.00 89 1012.0
20260904081538 76 210 0.0 2.0 0.00 0.00 0.00 92 1011.7
20260904080038 76 223 0.0 0.0 0.00 0.00 0.00 93 1011.7
20260904074537 76 223 0.0 1.0 0.00 0.00 0.00 94 1011.4
20260904073035 76 198 0.0 3.0 0.00 0.00 0.00 94 1011.3
20260904071533 75 211 0.0 0.0 0.00 0.00 0.00 94 1011.5
20260904070032 76 211 0.0 0.0 0.00 0.00 0.00 94 1011.8
20260904064529 76 211 0.0 0.0 0.00 0.00 0.00 94 1012.0
20260904063030 76 211 0.0 0.0 0.00 0.00 0.00 93 1012.2
20260904061526 76 211 0.0 0.0 0.00 0.00 0.00 93 1012.4
20260904060025 76 211 0.0 0.0 0.00 0.00 0.00 93 1012.5
20260904054524 77 211 0.0 0.0 0.00 0.00 0.00 93 1012.6
20260904053022 77 211 0.0 0.0 0.00 0.00 0.00 93 1012.5
20260904051520 77 211 0.0 2.0 0.00 0.00 0.00 93 1012.3
20260904050021 77 236 0.0 1.0 0.00 0.00 0.00 93 1012.2
20260904044519 77 311 0.0 0.0 0.00 0.00 0.00 93 1012.2
20260904043016 77 310 0.0 0.0 0.00 0.00 0.00 93 1012.3
20260904041516 77 311 0.0 1.0 0.00 0.00 0.00 93 1012.4
20260904040016 77 205 0.0 0.0 0.00 0.00 0.00 93 1012.4
20260904034518 77 205 0.0 0.0 0.00 0.00 0.00 92 1012.4
20260904033015 78 205 0.0 0.0 0.00 0.00 0.00 92 1012.3
20260904031514 78 205 0.0 0.0 0.00 0.00 0.00 92 1012.4
20260904030014 78 205 0.0 0.0 0.00 0.00 0.00 92 1012.4
20260904024515 78 205 0.0 0.0 0.00 0.00 0.00 91 1012.4
20260904023013 79 205 0.0 0.0 0.00 0.00 0.00 91 1012.3
20260904021516 79 205 0.0 0.0 0.00 0.00 0.00 90 1012.1
20260904020012 79 205 0.0 0.0 0.00 0.00 0.00 90 1012.1
20260904014515 80 205 0.0 0.0 0.00 0.00 0.00 90 1011.9
20260904013011 80 205 0.0 0.0 0.00 0.00 0.00 89 1011.7
20260904011517 80 205 0.0 0.0 0.00 0.00 0.00 88 1011.2
20260904010011 81 205 0.0 0.0 0.00 0.00 0.00 87 1010.8
20260904004510 81 205 0.0 0.0 0.00 0.00 0.00 87 1010.5
20260904003012 82 211 0.0 0.0 0.00 0.00 0.00 86 1010.3
20260904001511 82 211 0.0 1.0 0.00 0.00 0.00 85 1010.4
20260904000006 83 210 0.0 2.0 0.00 0.00 0.00 84 1010.7
20260903234504 84 218 0.0 0.0 0.00 0.00 0.00 82 1010.8
20260903233003 85 219 0.0 0.0 0.00 0.00 0.00 81 1010.9
20260903231507 86 219 0.0 0.0 0.00 0.00 0.00 79 1011.0
20260903230001 87 200 0.0 2.0 0.00 0.00 0.00 76 1011.2
20260903224622 89 200 0.0 2.0 0.00 0.00 0.00 73 1011.2
20260903223059 89 203 0.0 4.0 0.00 0.00 0.00 68 1011.3
20260903221559 89 207 1.0 3.0 0.00 0.00 0.00 67 1011.5
20260903220059 89 191 1.0 5.0 0.00 0.00 0.00 66 1011.5
20260903214610 90 188 1.0 3.0 0.00 0.00 0.00 70 1011.5
20260903213102 91 211 1.0 6.0 0.00 0.00 0.00 63 1011.5
20260903211555 91 200 2.0 6.0 0.00 0.00 0.00 61 1011.5
20260903210123 91 200 0.0 4.0 0.00 0.00 0.00 66 1011.7
20260903204552 91 183 0.0 4.0 0.00 0.00 0.00 67 1011.9
20260903203106 91 211 1.0 7.0 0.00 0.00 0.00 64 1012.0
20260903201548 91 202 0.0 4.0 0.00 0.00 0.00 67 1012.0
20260903200051 90 234 0.0 3.0 0.00 0.00 0.00 64 1012.1
20260903194543 90 202 0.0 3.0 0.00 0.00 0.00 65 1012.4
20260903193041 90 259 1.0 4.0 0.00 0.00 0.00 64 1012.6
20260903191541 90 199 0.0 4.0 0.00 0.00 0.00 65 1012.7
20260903190039 89 288 0.0 3.0 0.00 0.00 0.00 65 1012.8
20260903184538 90 302 0.0 2.0 0.00 0.00 0.00 64 1012.8
20260903183034 89 294 0.0 2.0 0.00 0.00 0.00 66 1012.9
20260903181533 88 42 0.0 4.0 0.00 0.00 0.00 71 1013.1
20260903180034 87 346 1.0 9.0 0.00 0.00 0.00 69 1013.2
20260903174533 87 350 0.0 7.0 0.00 0.00 0.00 72 1013.4
20260903173033 87 355 5.0 11.0 0.00 0.00 0.00 68 1013.4
20260903171531 87 26 2.0 12.0 0.00 0.00 0.00 68 1013.5
20260903170030 86 36 4.0 12.0 0.00 0.00 0.00 68 1013.7
20260903164529 85 13 5.0 15.0 0.00 0.00 0.00 70 1013.6